This is the latest recevied weather packets stored in our database for station/object KH2PM. If no packets are shown the sender has not sent any weather packets the latest 10 day(s).
| Time | Temp. | Humidity | Pressure | Rain* | Wind** | Luminosity | Snow |
|---|---|---|---|---|---|---|---|
| 1777201504 | 17.22° C | 96% | 1012 hPa | 0 mm | - | - | - |
| 1777199404 | 17.22° C | 96% | 1011.8 hPa | 0 mm | - | - | - |
| 1777197004 | 17.22° C | 95% | 1011.2 hPa | 0 mm | - | - | - |
| 1777196404 | 17.22° C | 96% | 1011.2 hPa | 0 mm | - | - | - |
| 1777195504 | 17.22° C | 95% | 1010.7 hPa | 0 mm | - | - | - |
| 1777192505 | 17.22° C | 95% | 1010.4 hPa | 0 mm | - | - | - |
| 1777191905 | 17.22° C | 95% | 1010.3 hPa | 0 mm | - | - | - |
| 1777191004 | 17.22° C | 95% | 1010.3 hPa | 0 mm | - | - | - |
| 1777190405 | 17.22° C | 95% | 1010.2 hPa | 0 mm | - | - | - |
| 1777189507 | 17.22° C | 95% | 1010.2 hPa | 0 mm | - | - | - |
| 1777189204 | 17.22° C | 95% | 1010.1 hPa | 0 mm | - | - | - |
| 1777184704 | 17.22° C | 95% | 1010.4 hPa | 0.51 mm | - | - | - |
| 1777184104 | 17.22° C | 95% | 1010.2 hPa | 0.51 mm | - | - | - |
| 1777183204 | 17.22° C | 95% | 1010.5 hPa | 0.51 mm | - | - | - |
| 1777180804 | 17.78° C | 95% | 1011.2 hPa | 1.02 mm | - | - | - |
| 1777179303 | 17.78° C | 94% | 1011.4 hPa | 1.27 mm | - | - | - |
| 1777178106 | 17.78° C | 94% | 1011.6 hPa | 0.76 mm | - | - | - |
| 1777176904 | 17.78° C | 94% | 1011.5 hPa | 0.51 mm | - | - | - |
| 1777175105 | 17.78° C | 94% | 1011.4 hPa | 0.25 mm | - | - | - |
| 1777173304 | 17.78° C | 94% | 1011.3 hPa | 0 mm | - | - | - |
| 1777172404 | 17.78° C | 93% | 1011.3 hPa | 0 mm | - | - | - |
| 1777171504 | 17.78° C | 93% | 1011.4 hPa | 0.25 mm | - | - | - |
| 1777169704 | 17.78° C | 92% | 1011.3 hPa | 0.25 mm | - | - | - |
| 1777165204 | 18.33° C | 91% | 1010.9 hPa | 1.78 mm | - | - | - |
| 1777158004 | 23.33° C | 66% | 1009.4 hPa | 1.02 mm | - | - | - |
* Rain latest hour (hover to see other rain measurements)
** Current wind speed in m/s (hover to see current wind gust speed)